Wetbulb
56.52 56.12 55.37 55.84 55.47 55.58 56.14 55.99 55.99 55.85 56.41 56.70 57.05 57.24 58.04 58.56 58.49 58.70 54.47 56.95 59.15 63.33 61.35 58.89 57.79 56.64 55.98 51.82 52.91 52.58 46.57 44.18 44.97 45.28 46.42 50.96 48.64 51.67 52.67 51.44 52.81 54.35 54.88 57.15 58.51
56.28 56.10 55.95 55.68 55.81 55.66 55.68 55.66 55.92 56.21 56.33 56.73 56.80 57.32 58.14 58.51 58.47 55.16 57.76 59.57 60.91 62.30 57.35 55.77 53.97 54.65 52.78 50.83 52.04 49.41 45.89 44.77 47.95 48.69 47.59 48.95 49.59 50.05 49.58 49.95 50.37 52.25 55.02 56.55 58.01
56.38 56.08 55.88 55.61 55.93 55.91 55.87 55.68 55.95 56.23 56.86 56.87 57.01 57.65 58.39 59.38 54.93 54.27 61.37 60.62 60.09 61.75 58.11 56.42 55.75 54.10 50.75 51.39 50.90 49.05 46.06 48.09 48.76 49.93 50.37 49.91 50.17 51.97 50.12 48.87 50.76 51.15 53.41 55.12 56.19
56.55 56.04 55.26 55.63 55.20 55.97 56.00 56.00 56.15 56.49 56.65 56.74 57.16 58.29 59.32 59.19 46.39 56.56 62.73 61.73 61.39 60.63 56.36 54.11 52.77 51.16 49.92 48.71 51.34 47.61 49.81 50.00 50.33 51.08 50.67 49.67 51.69 50.22 50.87 51.22 53.19 53.51 54.50 55.08 55.50
56.48 56.20 55.16 54.68 55.46 55.62 55.47 56.17 56.22 56.18 56.20 56.61 57.70 58.83 59.00 54.30 53.17 58.87 63.21 62.44 59.70 57.25 54.71 53.20 51.79 50.04 47.72 48.79 49.87 48.68 49.09 50.23 51.17 51.32 51.03 51.17 49.62 49.90 50.37 52.81 53.87 53.76 54.19 54.70 56.39
56.56 55.84 54.90 54.74 55.35 55.63 55.69 55.76 55.68 55.74 56.03 56.84 58.33 58.48 57.80 50.41 57.88 58.84 59.16 58.70 57.30 56.35 54.83 54.62 52.24 52.52 49.60 48.96 48.12 49.73 49.35 49.49 50.21 49.69 50.01 48.44 49.21 50.15 51.52 53.02 53.07 53.65 54.12 55.10 56.09
56.23 55.50 54.92 55.10 55.48 55.83 56.07 55.98 55.27 55.48 56.30 57.29 58.36 59.19 55.51 53.16 59.90 61.21 59.60 58.18 57.90 56.66 54.39 55.34 54.97 52.39 52.07 49.08 51.14 50.04 46.79 48.51 48.24 48.85 48.51 50.04 46.86 47.56 50.96 52.59 52.34 52.99 53.95 54.75 56.28
56.29 55.98 55.71 55.41 55.50 55.72 55.91 55.48 55.00 55.57 56.49 57.71 58.48 59.70 52.36 59.94 61.98 60.08 59.65 58.10 58.37 57.95 56.25 56.66 56.16 53.33 51.34 52.47 50.34 47.49 47.15 43.98 47.97 49.05 49.61 48.70 44.28 48.65 51.05 50.78 50.72 51.60 52.31 53.51 55.59
55.74 55.95 55.87 55.46 55.48 55.58 55.09 55.03 55.41 56.23 56.94 58.19 60.04 57.92 50.79 60.05 56.59 58.83 59.16 56.06 56.92 56.97 57.28 55.46 54.67 51.39 51.08 47.85 46.66 46.91 42.56 44.09 45.80 49.13 48.93 47.99 45.61 49.88 51.42 51.19 51.32 51.95 52.58 53.00 54.11
55.45 55.63 55.61 55.53 55.19 54.96 54.49 55.19 56.36 56.85 59.19 59.57 58.68 53.72 53.77 52.04 56.56 57.98 59.04 57.33 55.09 54.96 54.15 52.80 51.56 48.49 49.33 47.40 40.52 42.20 42.74 44.45 44.09 48.38 48.73 47.22 46.91 50.01 51.72 51.56 51.28 52.09 52.39 52.82 53.39
55.27 55.41 55.43 55.33 55.02 54.68 54.56 59.15 57.40 55.69 57.16 53.00 52.79 51.29 52.36 56.30 57.93 54.68 57.42 55.45 54.97 53.30 48.09 50.22 46.45 44.34 45.72 47.09 46.81 45.51 43.81 43.30 46.37 48.91 47.11 46.40 46.77 48.76 51.04 51.28 51.00 51.75 52.09 52.80 53.33
55.23 55.49 55.61 54.90 54.33 53.86 57.86 56.42 55.36 56.52 52.05 55.00 54.94 54.65 55.42 56.03 50.98 52.99 56.53 51.66 50.83 47.28 48.82 46.90 43.65 46.82 47.85 47.74 46.25 45.70 44.01 44.01 46.59 48.44 47.13 46.53 46.19 49.20 50.80 50.94 51.63 51.50 51.45 52.13 53.05
54.15 54.74 55.12 54.51 53.93 56.96 57.59 55.92 59.09 58.47 52.70 51.50 53.74 53.40 52.59 54.00 50.43 50.01 53.98 51.62 48.66 46.16 45.95 43.98 45.93 48.01 46.86 46.21 45.01 45.40 43.66 43.71 42.95 46.26 47.97 46.51 44.79 46.86 49.53 50.98 51.46 51.66 52.09 52.52 52.78
53.72 54.23 54.52 53.70 54.02 58.94 56.77 58.07 59.35 59.35 48.70 46.17 48.79 51.59 53.05 53.06 48.72 53.10 53.76 51.16 49.03 44.78 46.03 45.72 48.09 46.04 45.87 44.71 45.19 41.52 46.37 45.30 44.28 43.37 39.77 46.25 37.25 44.48 47.15 47.69 49.01 50.44 51.24 53.48 54.50
53.36 53.97 54.09 52.47 58.29 56.42 56.96 60.13 59.99 58.88 39.12 47.12 48.24 55.05 53.75 49.76 50.34 50.59 54.22 51.15 46.13 45.98 45.78 43.64 45.04 44.98 44.00 44.01 46.06 43.81 46.95 45.36 44.96 43.59 43.10 43.07 39.91 43.17 46.68 45.25 47.74 49.06 51.64 53.28 55.17
53.13 53.54 52.94 58.15 59.82 57.46 59.45 60.24 59.19 46.88 36.97 44.59 48.54 48.66 48.88 49.59 49.00 50.32 50.21 52.36 51.21 46.87 47.62 46.70 48.91 47.19 46.38 47.42 47.79 47.93 46.04 46.06 45.67 43.65 37.51 41.18 39.76 40.35 43.28 44.43 46.05 49.21 51.39 52.93 54.10
52.64 53.13 55.05 58.95 56.59 59.31 59.82 58.02 47.27 40.88 46.71 44.30 45.49 48.13 47.78 46.34 46.68 47.21 46.58 46.15 43.19 40.12 41.54 45.17 44.42 47.19 47.76 45.27 48.14 45.83 42.66 37.74 36.98 37.29 36.52 42.35 39.28 41.83 45.89 47.58 48.16 48.35 51.00 53.26 54.55
51.33 51.07 54.33 58.94 60.13 59.53 58.31 51.04 40.13 42.85 43.71 48.19 47.14 47.43 44.17 45.64 45.96 45.68 45.06 44.24 46.45 44.50 42.43 39.20 38.03 43.90 46.77 45.52 43.59 44.36 42.24 36.82 29.03 33.53 36.43 42.58 36.83 42.42 47.83 49.57 50.12 50.47 51.79 53.18 54.17
50.34 61.16 61.33 59.29 59.48 59.42 53.86 44.71 43.56 44.00 46.04 45.32 46.66 43.55 43.34 45.02 45.14 44.50 44.85 44.17 44.59 46.41 40.49 39.61 39.15 47.01 47.21 47.51 46.48 42.84 39.14 44.33 38.57 39.27 35.35 39.54 42.58 46.66 47.91 47.50 48.79 50.14 51.14 52.40 53.66
54.65 57.76 57.86 59.67 59.58 57.58 50.12 41.54 45.40 47.76 47.67 47.18 41.99 43.94 41.22 43.75 42.57 43.99 43.55 45.96 44.19 46.89 48.60 43.78 37.63 44.44 45.72 48.34 47.86 45.59 46.35 38.31 38.70 30.50 30.49 36.53 38.43 39.77 44.54 45.60 48.31 49.10 49.90 52.03 53.68
55.38 52.72 57.87 59.77 59.15 53.32 46.73 45.01 45.62 48.81 48.73 45.91 44.52 43.48 43.99 42.52 43.18 42.63 42.41 45.78 46.36 46.23 48.30 46.42 42.44 41.72 45.08 43.68 42.76 41.28 40.01 39.48 39.68 37.57 31.80 32.29 36.47 45.64 46.03 47.58 48.05 49.80 51.11 52.18 53.08
53.20 47.35 57.96 59.26 50.22 51.77 47.33 45.19 43.99 46.81 49.85 47.58 47.31 46.07 44.14 43.64 42.14 42.35 41.99 44.63 48.13 46.82 43.23 46.52 43.22 38.09 40.87 46.15 48.06 46.56 43.53 42.07 35.91 34.13 37.12 36.07 34.59 46.69 48.47 49.47 49.96 50.56 51.58 52.83 53.73
48.94 50.77 57.51 57.04 46.61 45.79 46.70 45.07 45.71 45.22 46.28 45.92 45.18 45.93 46.53 43.23 40.17 43.60 44.56 47.57 47.82 46.30 44.39 45.69 40.76 35.25 38.20 43.59 45.23 42.43 43.32 40.94 40.11 38.82 32.89 31.63 36.22 45.64 46.13 47.81 48.58 49.65 51.83 52.79 53.56
50.11 45.09 51.44 52.06 50.78 44.62 43.90 43.53 42.92 46.87 46.68 46.66 46.10 47.49 45.20 43.94 46.00 42.03 42.92 45.93 46.13 46.24 46.83 46.22 42.14 38.93 35.21 39.08 42.98 39.32 42.13 43.25 40.45 33.29 33.79 37.05 38.81 44.12 45.14 45.14 48.02 49.48 51.12 52.16 53.27
50.61 47.70 48.06 43.27 46.91 44.54 45.20 44.12 42.20 41.95 46.55 46.74 44.11 44.37 44.11 38.90 41.79 40.92 44.32 45.16 47.14 48.33 47.10 45.82 39.61 41.86 42.38 43.55 42.46 41.34 41.64 41.58 39.05 38.86 33.76 38.85 39.76 44.02 45.78 45.24 47.93 48.96 49.43 50.38 52.17
46.09 45.36 49.14 44.84 45.45 44.26 43.43 43.19 42.31 43.19 43.57 42.81 41.88 44.24 44.88 40.35 43.16 39.59 42.01 42.55 42.95 46.54 45.43 45.76 38.84 40.66 37.66 41.91 41.30 40.25 41.19 41.33 41.91 41.30 39.54 41.77 39.53 46.08 45.94 47.30 45.66 47.35 48.32 49.01 50.53
49.95 51.46 46.93 43.72 44.01 42.93 43.62 43.16 42.57 44.52 44.95 45.01 44.33 42.70 42.14 44.17 46.30 45.05 45.33 46.83 46.55 44.73 43.96 41.52 37.54 36.43 34.63 40.39 40.27 35.08 41.32 41.47 41.69 43.50 41.90 37.70 43.90 47.04 45.43 45.06 46.23 47.25 48.07 48.55 50.05
MSLP
1019.48 1019.21 1019.04 1018.85 1018.73 1018.58 1018.36 1018.15 1017.92 1017.66 1017.36 1017.09 1016.76 1016.37 1015.98 1015.65 1014.48 1013.66 1013.66 1014.64 1014.30 1014.17 1013.65 1012.44 1011.64 1011.47 1011.02 1010.45 1010.22 1009.67 1007.60 1005.71 1005.58 1006.06 1005.90 1007.13 1007.12 1007.04 1007.64 1007.45 1006.41 1005.73 1005.20 1005.01 1005.26
1019.42 1019.18 1018.99 1018.80 1018.56 1018.40 1018.26 1018.08 1017.89 1017.63 1017.35 1017.09 1016.84 1016.56 1016.24 1015.84 1013.64 1013.70 1014.81 1014.64 1014.47 1014.05 1012.61 1011.79 1011.19 1011.06 1010.32 1010.26 1010.11 1009.22 1007.69 1006.39 1007.38 1007.28 1007.48 1007.78 1007.78 1007.45 1007.53 1007.00 1006.46 1005.69 1005.00 1005.03 1005.10
1019.38 1019.06 1018.82 1018.64 1018.44 1018.23 1018.04 1017.89 1017.68 1017.46 1017.21 1017.02 1016.78 1016.48 1016.11 1015.66 1013.54 1013.68 1014.65 1014.66 1014.46 1013.90 1012.88 1012.28 1011.58 1010.86 1010.13 1010.18 1010.08 1009.44 1008.16 1008.16 1008.06 1008.27 1008.52 1008.25 1007.80 1007.47 1007.04 1006.66 1006.24 1005.80 1005.19 1005.10 1005.16
1019.35 1018.98 1018.76 1018.52 1018.29 1018.06 1017.87 1017.66 1017.46 1017.24 1017.08 1016.82 1016.53 1016.21 1015.76 1014.86 1013.41 1013.76 1014.39 1014.42 1014.23 1013.49 1012.22 1011.65 1011.00 1010.44 1010.13 1009.88 1010.35 1009.70 1009.08 1009.00 1008.61 1008.62 1008.46 1008.15 1007.86 1007.05 1006.85 1006.44 1006.44 1006.24 1005.48 1005.17 1005.13
1019.29 1018.87 1018.59 1018.40 1018.13 1017.88 1017.69 1017.47 1017.27 1017.10 1016.87 1016.46 1016.14 1015.86 1015.51 1013.26 1013.17 1013.64 1014.26 1014.16 1013.47 1012.86 1012.19 1011.62 1011.07 1010.73 1010.24 1010.34 1010.30 1009.76 1009.37 1009.37 1009.08 1008.72 1008.25 1008.16 1007.59 1006.92 1006.33 1006.26 1006.30 1005.90 1005.38 1005.02 1004.90
1019.27 1018.80 1018.46 1018.26 1018.01 1017.70 1017.48 1017.29 1016.98 1016.78 1016.56 1016.23 1015.80 1015.35 1013.77 1012.78 1013.32 1013.44 1013.42 1013.43 1013.02 1012.46 1012.12 1011.74 1011.55 1011.58 1010.76 1010.46 1010.35 1010.00 1009.89 1009.37 1008.69 1008.32 1008.05 1007.72 1007.04 1006.73 1006.13 1005.86 1005.99 1005.60 1005.18 1004.72 1004.70
1019.15 1018.76 1018.40 1018.10 1017.89 1017.62 1017.34 1017.15 1016.84 1016.49 1016.18 1015.93 1015.57 1014.63 1012.80 1013.04 1013.06 1013.03 1013.04 1012.68 1012.81 1012.64 1012.10 1012.04 1011.95 1011.54 1011.10 1010.16 1010.38 1010.16 1009.58 1008.63 1008.38 1008.00 1007.68 1007.68 1006.28 1005.32 1006.04 1006.18 1005.72 1005.42 1005.12 1004.71 1004.53
1019.18 1018.70 1018.28 1017.90 1017.66 1017.43 1017.14 1016.87 1016.62 1016.37 1016.00 1015.74 1015.51 1014.22 1012.62 1012.83 1012.80 1012.63 1012.45 1012.18 1012.54 1012.53 1012.50 1012.22 1011.98 1011.50 1011.08 1010.68 1010.15 1009.59 1009.02 1007.70 1007.24 1007.54 1007.19 1007.79 1005.38 1005.24 1005.94 1005.97 1005.52 1005.37 1005.05 1004.60 1004.21
1019.27 1018.69 1018.23 1017.80 1017.43 1017.16 1016.86 1016.60 1016.39 1016.26 1015.95 1015.52 1014.72 1013.42 1012.10 1012.73 1012.30 1012.14 1012.15 1011.80 1011.88 1012.02 1012.00 1012.28 1011.83 1011.13 1010.80 1009.96 1008.58 1008.57 1007.92 1007.51 1007.23 1007.46 1007.40 1007.25 1005.36 1005.21 1005.80 1005.60 1005.28 1004.92 1004.65 1004.34 1003.93
1019.39 1018.73 1018.10 1017.64 1017.30 1017.04 1016.78 1016.51 1016.25 1016.09 1015.46 1014.74 1014.30 1013.42 1011.96 1012.16 1012.24 1012.16 1011.95 1012.12 1011.68 1011.49 1011.03 1011.02 1010.73 1010.11 1009.38 1009.06 1008.52 1008.69 1008.36 1007.80 1007.37 1007.13 1006.77 1006.16 1005.16 1004.94 1004.81 1004.41 1004.44 1004.30 1004.09 1003.83 1003.47
1019.37 1018.71 1018.07 1017.51 1017.08 1016.90 1016.63 1016.04 1015.69 1014.74 1013.70 1013.61 1013.31 1012.83 1012.36 1012.31 1012.19 1011.64 1011.71 1011.68 1011.58 1011.08 1010.29 1010.63 1010.38 1009.14 1009.82 1010.12 1009.99 1009.71 1009.03 1008.04 1007.43 1007.06 1006.54 1005.72 1004.89 1004.44 1004.38 1003.83 1003.54 1003.39 1003.02 1002.92 1002.67
1019.44 1018.68 1017.98 1017.42 1016.97 1016.74 1015.96 1014.62 1014.99 1014.92 1013.59 1013.49 1013.24 1012.92 1012.64 1012.59 1011.79 1011.36 1011.84 1011.50 1011.16 1010.52 1010.32 1009.60 1008.98 1009.78 1010.20 1010.17 1009.92 1009.43 1008.60 1007.52 1007.04 1006.69 1006.50 1005.18 1003.80 1003.89 1003.45 1003.05 1002.80 1002.56 1002.08 1002.04 1001.94
1019.33 1018.68 1017.94 1017.35 1016.98 1016.61 1015.22 1015.05 1014.82 1014.69 1013.42 1012.72 1012.53 1012.12 1012.11 1012.29 1011.69 1011.62 1011.78 1011.52 1011.04 1010.69 1010.20 1009.93 1009.58 1010.07 1010.05 1009.61 1009.21 1008.66 1008.19 1007.66 1007.42 1006.83 1005.78 1004.65 1002.46 1001.90 1001.77 1001.82 1002.04 1002.04 1001.82 1001.66 1001.56
1019.25 1018.59 1017.91 1017.23 1017.37 1015.48 1014.80 1015.21 1014.98 1014.84 1012.98 1012.25 1011.76 1011.77 1011.61 1011.57 1011.56 1011.92 1011.92 1011.89 1011.10 1010.76 1010.66 1009.90 1009.94 1009.98 1009.66 1009.23 1009.58 1008.57 1008.26 1008.24 1007.46 1006.43 1004.56 1004.69 1001.77 1001.92 1001.48 1001.03 1001.28 1001.08 1001.13 1000.98 1000.82
1019.28 1018.54 1017.73 1017.14 1015.93 1014.72 1015.25 1014.92 1014.80 1014.77 1012.45 1012.22 1011.69 1011.84 1011.48 1011.66 1011.69 1011.22 1012.05 1011.66 1011.22 1011.04 1011.24 1009.59 1009.97 1009.89 1009.66 1009.57 1009.84 1008.91 1008.68 1008.05 1007.18 1005.96 1004.86 1003.60 1002.56 1000.66 1000.80 1000.30 1000.26 1000.60 1000.80 1000.89 1000.67
1019.08 1018.28 1017.42 1016.22 1015.54 1015.24 1015.10 1014.99 1014.68 1013.53 1011.97 1011.83 1011.74 1011.67 1011.39 1011.34 1011.49 1011.44 1011.58 1011.61 1012.07 1011.44 1010.74 1009.94 1010.04 1010.33 1009.74 1009.83 1009.47 1009.30 1008.37 1007.02 1006.39 1005.26 1003.71 1002.44 1002.57 1000.38 999.85 1000.18 1000.25 1000.78 1000.67 1000.68 1000.41
1018.77 1017.93 1017.29 1016.02 1015.02 1015.10 1015.01 1014.33 1013.13 1012.26 1012.58 1012.01 1012.06 1011.93 1011.78 1011.54 1011.54 1011.50 1011.52 1011.27 1011.54 1011.16 1010.29 1009.86 1009.36 1010.01 1010.30 1009.37 1008.66 1008.90 1008.41 1006.01 1004.37 1003.44 1002.01 1002.52 1002.34 1000.68 1000.27 1000.29 1000.48 1000.67 1000.92 1000.56 1000.27
1018.31 1017.47 1016.72 1015.71 1015.28 1015.27 1014.63 1013.34 1012.46 1012.50 1012.38 1012.58 1012.54 1012.28 1011.86 1012.01 1011.70 1011.70 1011.60 1011.11 1011.76 1012.02 1011.05 1010.22 1009.25 1009.67 1009.72 1009.50 1009.04 1008.78 1008.87 1008.06 1006.53 1004.48 1003.40 1002.85 1001.16 999.92 1000.23 1000.44 1000.46 1000.72 1000.86 1000.50 1000.07
1017.90 1016.14 1015.22 1015.36 1015.46 1015.07 1013.92 1012.70 1012.38 1013.00 1013.48 1013.42 1012.91 1012.21 1011.91 1012.15 1012.10 1011.95 1011.44 1011.25 1011.54 1011.90 1011.62 1010.75 1009.73 1009.44 1009.22 1009.36 1009.68 1008.78 1008.93 1008.94 1008.26 1006.60 1004.77 1002.42 1001.03 999.94 999.61 1000.06 1000.26 1000.56 1000.44 1000.12 999.93
1018.18 1016.04 1015.23 1015.26 1015.28 1014.57 1013.22 1013.24 1013.20 1013.83 1014.08 1013.82 1013.17 1012.81 1012.18 1012.18 1012.48 1011.95 1011.48 1011.30 1011.61 1012.02 1012.20 1011.51 1010.41 1009.37 1009.50 1009.08 1008.71 1009.17 1009.32 1009.18 1009.49 1007.40 1004.63 1002.20 1001.14 999.70 999.56 999.84 1000.04 1000.08 1000.15 1000.05 1000.04
1017.92 1015.42 1015.04 1015.03 1014.72 1013.52 1012.92 1013.40 1013.87 1014.08 1014.41 1014.04 1013.42 1013.20 1012.91 1012.87 1012.82 1012.34 1011.75 1011.50 1011.96 1011.95 1012.44 1011.84 1011.39 1009.58 1009.10 1008.12 1007.81 1008.81 1009.37 1010.42 1010.81 1009.66 1006.97 1003.78 1001.87 1001.70 1000.54 1000.25 999.93 999.96 999.94 1000.00 999.96
1018.00 1015.12 1015.24 1014.72 1013.82 1014.13 1013.92 1014.88 1015.50 1014.42 1014.53 1014.39 1014.12 1013.72 1013.60 1013.68 1013.32 1012.81 1012.07 1011.90 1012.23 1012.60 1012.16 1011.89 1011.45 1009.75 1008.56 1008.12 1008.12 1008.20 1008.47 1009.87 1010.78 1009.35 1008.49 1006.40 1003.49 1002.63 1001.60 1000.75 1000.68 1000.58 1000.24 1000.27 1000.41
1018.67 1016.55 1015.58 1015.21 1014.12 1014.45 1014.96 1015.26 1015.34 1014.83 1014.54 1014.52 1014.26 1014.19 1014.18 1014.10 1014.04 1013.17 1012.72 1012.49 1012.65 1012.66 1012.14 1012.12 1011.24 1009.90 1007.58 1007.51 1008.20 1007.95 1008.78 1010.38 1010.52 1009.96 1008.41 1006.96 1003.53 1003.44 1003.34 1003.02 1002.67 1002.05 1000.80 1000.36 1000.50
1019.43 1016.75 1015.69 1015.84 1016.60 1016.55 1015.93 1015.03 1015.15 1015.25 1015.21 1015.16 1014.67 1014.62 1014.45 1014.14 1013.90 1013.40 1012.84 1012.62 1012.95 1012.92 1012.99 1013.30 1011.68 1010.66 1008.97 1007.72 1007.70 1007.41 1007.46 1007.54 1008.25 1008.56 1007.52 1005.88 1004.00 1003.06 1002.98 1003.39 1003.15 1002.52 1001.75 1001.08 1000.75
1019.79 1018.34 1018.68 1016.60 1016.28 1017.32 1017.16 1016.16 1015.46 1015.17 1015.50 1015.46 1014.59 1014.58 1014.32 1014.67 1014.11 1013.50 1012.95 1012.70 1012.36 1012.06 1012.25 1012.23 1010.89 1010.18 1009.10 1008.00 1007.47 1006.84 1006.05 1006.12 1006.09 1006.04 1006.24 1005.16 1004.06 1003.16 1003.62 1003.74 1003.15 1002.84 1002.56 1001.66 1000.85
1020.61 1019.75 1019.06 1018.19 1017.79 1017.46 1017.00 1016.06 1015.91 1015.50 1016.04 1015.15 1015.22 1014.92 1014.73 1014.44 1014.05 1013.41 1013.39 1013.11 1012.20 1011.55 1011.46 1011.50 1010.79 1010.39 1009.35 1008.60 1007.48 1005.60 1004.79 1004.68 1004.56 1004.32 1004.49 1004.32 1003.77 1003.61 1004.12 1003.98 1003.46 1002.77 1002.16 1001.24 1000.98
1021.71 1021.15 1020.43 1018.55 1017.77 1017.53 1016.50 1016.25 1016.07 1016.16 1015.92 1015.82 1015.54 1015.44 1014.84 1014.46 1014.24 1014.22 1013.76 1012.62 1011.77 1011.28 1011.01 1011.39 1011.49 1010.92 1009.09 1008.21 1006.96 1005.12 1002.96 1003.31 1003.58 1003.87 1004.38 1003.97 1002.67 1002.66 1002.74 1003.34 1002.84 1002.32 1002.22 1001.36 1000.82
Wind_Speed
14 11 9 9 8 8 9 9 9 10 11 11 12 13 15 15 16 4 14 7 7 9 13 2 2 5 5 3 2 4 7 9 6 7 1 2 8 6 3 12 17 17 17 16 18
15 13 11 9 8 7 7 7 8 9 10 11 12 12 13 12 2 15 4 2 5 9 6 7 4 4 4 2 2 7 7 5 5 6 6 7 11 10 9 11 13 18 18 15 11
16 14 12 10 9 8 7 7 7 8 9 10 10 11 11 11 2 12 6 2 2 8 5 4 2 4 2 4 2 2 8 4 7 8 8 9 15 13 12 13 10 15 18 16 15
16 15 12 11 9 8 7 7 7 7 8 10 10 11 10 8 5 6 7 5 3 7 4 4 3 2 3 3 1 9 4 9 12 10 13 14 16 18 16 16 11 16 18 16 15
16 15 12 10 9 9 7 7 7 6 6 9 10 10 8 10 11 6 6 6 4 4 6 6 10 5 4 4 7 9 4 7 12 15 17 15 18 19 20 15 15 13 16 15 10
16 15 13 11 11 10 8 6 6 6 6 8 11 14 7 12 2 0 3 3 2 4 6 7 7 7 2 6 7 5 10 13 11 11 10 14 15 12 14 9 11 14 14 14 10
19 15 13 12 10 11 10 7 6 5 6 7 8 6 6 9 1 3 4 2 2 3 6 4 6 8 8 8 1 10 13 10 7 4 10 8 20 16 3 7 10 11 12 15 15
19 17 14 12 10 10 11 10 7 5 5 6 7 5 7 3 5 6 2 3 3 3 4 5 6 8 6 7 12 10 7 9 7 9 9 8 16 8 7 8 12 14 15 16 19
23 18 14 12 10 9 9 7 3 4 5 7 6 6 6 6 4 6 5 6 5 3 3 4 6 7 6 8 12 9 8 12 11 3 12 11 14 10 6 14 18 16 15 15 18
24 21 16 12 10 7 6 5 4 6 6 4 2 6 4 11 8 9 1 7 7 8 9 4 7 9 10 7 10 14 16 15 16 15 14 21 24 20 18 19 16 18 16 17 18
25 23 19 13 9 5 4 6 6 7 2 6 4 2 5 10 2 3 2 5 5 9 9 7 10 6 9 10 11 13 15 18 18 17 20 22 24 20 18 18 17 18 18 17 19
24 23 20 15 9 2 7 4 5 6 3 1 1 4 2 4 4 9 4 5 7 11 12 11 6 3 8 11 12 15 19 18 16 13 14 21 24 21 20 21 19 19 18 16 18
24 23 20 13 7 5 5 6 6 3 6 5 1 2 6 4 4 9 6 6 9 12 12 11 11 7 12 14 14 14 14 14 17 16 18 18 24 13 9 11 13 14 16 16 18
26 24 20 12 3 2 1 2 7 3 5 5 5 4 4 5 4 3 3 7 11 10 10 7 6 13 14 11 8 13 10 14 17 15 12 10 15 14 15 9 9 13 10 11 14
26 24 18 7 7 4 6 8 2 5 5 4 4 2 8 6 9 6 4 9 9 10 7 9 13 12 11 6 7 15 15 17 19 18 17 13 13 13 16 14 15 7 6 8 9
28 25 19 5 4 4 7 1 5 7 1 2 1 8 10 4 4 6 5 2 5 10 9 13 6 6 8 9 12 11 16 19 16 9 9 3 9 13 9 6 7 7 8 8 12
30 24 10 4 5 8 4 5 6 5 3 2 5 9 13 6 7 6 11 8 6 7 10 13 3 2 5 12 10 5 15 9 6 9 8 8 10 14 14 13 12 12 12 12 13
32 23 6 3 5 3 4 6 6 3 3 4 8 15 5 5 6 6 8 9 6 5 11 9 7 1 2 14 14 17 8 8 9 11 17 19 10 9 9 12 12 5 12 12 13
31 0 0 8 4 4 7 5 4 2 3 7 14 6 3 5 7 6 7 9 2 4 7 11 7 18 13 5 6 4 7 6 13 18 14 12 15 16 6 9 7 11 8 11 9
8 3 4 12 4 6 6 2 2 2 6 6 7 3 7 9 7 8 7 2 4 2 4 8 16 8 5 16 6 11 8 5 4 8 12 10 17 11 11 7 9 9 8 10 10
5 5 6 12 4 6 4 3 5 2 5 5 7 9 9 9 7 8 5 4 1 4 7 12 8 11 18 10 14 6 6 5 5 7 8 13 9 8 11 13 10 10 12 11 14
6 4 8 10 4 1 3 6 4 5 5 6 7 10 10 6 9 7 7 4 3 6 12 10 8 16 19 18 11 10 12 7 4 7 8 10 13 10 18 12 12 12 14 18 20
8 4 5 7 2 3 2 6 5 5 4 3 5 4 4 5 5 8 9 4 10 13 4 6 6 12 6 8 4 5 7 7 13 10 15 14 14 5 11 20 23 24 27 19 21
6 5 2 4 4 6 7 5 5 4 9 5 9 9 9 13 10 8 13 8 3 8 10 10 14 17 14 19 19 22 22 20 13 5 13 19 27 25 17 15 21 23 22 22 18
2 4 4 4 2 8 5 7 10 5 5 4 6 8 10 7 13 17 11 16 19 15 12 9 17 17 20 22 22 25 26 24 22 20 19 22 26 21 19 16 17 21 20 22 18
6 5 2 9 7 8 5 6 9 7 4 6 12 13 14 15 16 23 23 19 17 9 11 6 10 13 19 21 23 25 25 25 23 20 19 16 21 17 7 16 15 19 19 21 19
3 1 5 3 6 7 6 5 6 7 9 11 9 13 17 18 21 20 19 23 24 24 21 15 6 8 14 15 19 19 12 6 11 12 10 15 19 21 16 16 17 21 21 24 21
Wind_Direction
4 2 353 347 342 336 332 325 326 332 335 338 340 337 337 340 292 148 56 37 350 327 293 194 189 159 207 136 227 259 248 254 250 251 121 236 295 286 269 284 281 279 276 293 305
4 358 353 349 346 340 334 329 325 323 329 333 335 332 329 329 333 67 68 349 324 325 3 1 51 200 158 155 176 263 266 313 358 302 293 307 287 302 285 264 274 280 273 282 285
2 358 352 349 343 341 338 329 320 319 321 326 324 316 309 291 207 57 137 165 285 288 6 337 292 270 226 234 150 181 285 359 271 281 298 291 284 282 277 265 261 288 291 294 302
360 354 351 344 340 337 335 327 325 324 326 321 315 308 306 224 56 62 150 177 232 298 319 7 358 248 273 269 276 274 248 284 294 303 289 283 292 282 273 274 281 277 285 293 291
357 352 348 339 334 329 330 325 321 322 316 306 306 303 257 87 82 112 174 185 253 316 26 15 28 339 338 306 285 253 307 289 284 282 280 286 273 274 278 275 270 261 275 279 295
356 354 348 341 330 323 317 314 311 312 304 305 313 308 253 77 73 161 245 248 329 340 24 9 9 359 300 305 282 355 295 285 282 284 283 275 277 275 264 256 260 264 269 275 273
2 1 349 337 327 319 315 313 301 289 287 301 317 303 63 70 231 256 235 316 316 331 339 17 330 296 334 292 271 287 284 282 214 294 287 303 269 244 267 251 264 264 271 278 277
1 354 350 342 331 320 315 309 287 262 265 286 303 270 70 115 307 257 202 206 222 251 280 308 290 292 274 321 256 260 276 271 147 271 283 259 282 184 210 256 289 286 284 278 278
359 353 347 341 331 321 321 311 245 224 241 269 243 282 70 151 286 357 289 312 309 249 239 275 265 306 245 271 271 168 298 310 304 286 284 256 298 310 295 258 287 279 277 279 281
355 349 344 336 330 320 319 263 163 200 216 250 243 231 78 358 336 321 306 277 289 306 282 262 299 262 234 301 322 319 304 301 297 296 267 274 277 281 278 271 269 279 276 276 274
354 349 343 334 325 288 232 211 211 176 204 5 40 17 347 348 169 344 333 265 272 254 314 322 290 352 343 322 312 290 283 287 289 295 283 280 278 279 278 271 268 270 269 262 265
348 347 343 335 336 227 256 37 36 355 261 151 284 255 294 330 286 6 316 287 304 306 305 298 294 346 316 292 289 287 287 289 301 305 281 278 280 283 276 273 265 268 271 262 259
345 345 340 330 316 256 15 51 332 269 256 157 230 264 13 285 319 10 324 319 305 302 330 303 302 330 304 303 299 288 290 301 304 305 269 269 279 267 281 255 266 263 264 266 268
342 340 339 329 272 11 103 341 309 236 244 139 176 126 314 317 225 14 338 324 306 315 322 280 328 305 308 297 333 301 347 292 294 299 310 329 295 303 302 297 239 266 262 275 276
336 336 335 322 327 298 14 329 182 218 257 89 140 59 328 302 329 130 10 318 306 314 289 343 317 318 292 349 307 305 314 296 289 287 294 280 263 294 282 244 263 229 258 288 296
333 333 327 208 229 29 325 202 224 229 144 129 266 325 328 326 328 297 297 248 309 295 271 283 301 277 320 310 286 304 295 291 264 266 263 39 301 296 310 317 310 258 284 300 310
331 326 303 297 340 329 287 218 244 264 121 85 327 325 319 298 317 316 322 311 318 318 334 322 260 260 301 312 312 267 326 295 237 218 290 35 284 285 295 287 264 270 293 304 308
327 319 163 21 328 266 228 244 261 62 327 346 309 309 281 357 324 316 292 299 168 285 302 333 311 285 299 300 307 302 291 291 310 314 314 307 275 280 328 285 287 248 268 280 299
314 189 188 1 311 260 262 266 354 345 352 313 306 271 258 245 317 316 286 293 310 219 322 317 289 315 293 332 304 21 259 319 287 271 274 260 262 270 311 295 250 248 269 297 309
315 276 50 343 303 249 259 300 269 290 316 280 281 261 290 321 305 327 299 149 283 268 306 307 297 293 299 298 246 235 313 267 223 279 301 310 305 286 288 243 248 225 275 299 311
274 266 45 341 251 242 273 326 289 246 284 250 277 282 287 310 284 298 265 276 168 298 296 293 269 283 293 268 311 230 241 226 301 280 281 302 316 343 297 300 285 292 297 307 310
305 282 17 331 238 351 288 334 354 270 221 271 271 267 276 306 288 280 253 268 278 308 296 310 295 289 294 283 296 278 284 252 256 294 262 295 290 0 347 318 310 298 299 315 317
322 305 17 313 291 323 315 271 268 269 265 277 266 234 280 269 279 271 285 321 290 288 286 354 268 309 283 144 194 251 279 222 247 273 255 275 276 116 331 316 307 299 302 306 310
295 304 106 51 50 339 326 282 264 234 267 264 271 277 263 264 252 266 277 302 282 282 289 288 250 246 268 288 307 296 283 276 251 230 277 262 282 289 295 278 291 297 307 305 303
327 51 16 305 267 328 282 289 286 280 219 256 256 248 268 275 286 282 274 302 295 282 256 242 265 259 260 274 287 281 282 283 275 263 254 280 285 293 304 308 296 303 299 293 304
319 326 280 288 290 276 227 258 282 277 272 276 286 293 277 263 276 300 299 289 281 261 257 225 272 290 282 286 281 280 284 280 270 271 271 283 288 275 310 309 296 299 300 294 298
6 223 275 255 263 270 271 284 300 299 275 269 290 310 288 288 306 304 292 283 272 271 270 266 255 265 265 285 310 288 266 241 276 255 255 264 295 303 310 285 312 306 303 296 296